DECAYED

PSLV R/B, 44104 (Decayed)

Orbit data source: Space-Track

PSLV R/B, 44104 was space debris in LEO originally from a launch on Mon, 01 Apr 2019 UTC via a PSLV-QL launch vehicle from the Sirharikota (SRI). Debris objects in space refer to the collection of defunct objects orbiting the Earth. Examples of debris include non-operational satellites, rocket bodies, and fragments generated from explosions, collisions, or faulty payload assembly.

Not visible in the next 10 days
PSLV R/B details
Identifier
44104, 2019-018AC
Orbit
Decayed
Last TLE update6 months ago
Origin
Flag of INISRO (IN / IND)
ManufacturerISRO SAC/Banga
MissionDecayed Civil Technology
Bus & MotorPS-4 OP, Unknown motor
Mass~20 kg wet, ~20 kg dry
Launch date (UTC)
2019-04-01 (6 years ago)
Launch vehicle
PSLV-QL
Launch site
Sirharikota (SRI)
Object type
Payload
Rocket body
Debris
Shape & HBRBox + Box, 0.3 m
Radar Cross Section0.075 m², Large (>1 m²)

Expand to show TLE details & history

TLE from 6 months ago
0 PSLV R/B
1 44104U 19018AC  24182.30226727  .75017961  27951-5  13042-3 0  9996
2 44104  97.3313 295.7289 0014430 174.9294 243.0071 16.64608738295003
Epoch: 2024-06-30T07:15Z
Definitive object data (Epoch: 2024-06-30T07:15:15.892Z)
Latitude57.16302°
Longitude-103.37182°
Altitude115.088 km
Speed7.84 km/s
True Right ascension18h 57m 11s
True Declination56° 59' 26"
Sunlit
Object was in daylight at TLE epoch
Visualization TLE readout
Latitude45.99321°
Longitude-138.08179°
Altitude101,031.181 km
Speed2.052 km/s
Apparent Right ascension16h 53m 04s
Apparent Declination44° 52' 52"
Sunlit
Object is in daylight
Visualization observer readout
Local Sidereal Time11:40:40
Azimuth57.164° ENE
Elevation34.392°
Doppler factor1
Orbital elements
Apogee altitude107.265 km
Perigee altitude88.575 km
Semi-major axis6,476.057 km
Eccentricity0.001443
Inclination97.3313°
RAAN295.7289°
Arg. of periapsis174.9294°
True anomaly242.85988°
Mean anomaly243.0071°
Eccentric anomaly242.93348°
Mean motion4.16464 °/min
BSTAR0.00013042
Orbital period86.44 mins
Loading maneuver chart data...

PSLV R/B Visibility forecast

Observer location: undefined°, undefined

This satellite is decayed
Span
Click to sort rows by Start time (UTC) header in descending order
Start Az.
Max El. time (UTC)
Max El. Az.
Max El.
End time (UTC)
End Az.
|